Hourly Data Report for December 27, 2017

ST. JOHN'S INTL A
NEWFOUNDLAND

47°37'07.000" N
52°45'09.000" W
140.50 m
8403505
71801
YYT

Download Data

Hourly Data (December 2017)
Hourly Data Report for December 27, 2017
TIME
LST
Temp Definition
°C
Dew Point Definition
°C
Rel Hum Definition
%
Precip. Amount Definition
mm

Wind Dir Definition
10's deg

Wind Spd Definition
km/h
Visibility Definition
km
Stn Press Definition
kPa
Hmdx Definition


Wind Chill Definition


Weather Definition


00:30 -2.2 -8.2 63   26 56 24.1 98.80   -12 LegendNANA
01:30 -2.1 -10.4 53   26 59 24.1 98.77   -12 LegendNANA
02:30 -2.3 -10.3 55   26 61 24.1 98.73   -12 Cloudy
03:30 -2.4 -9.7 58   25 40 24.1 98.69   -11 LegendNANA
04:30 -2.7 -10.4 56   25 53 24.1 98.64   -12 LegendNANA
05:30 -4.1 -8.5 71   26 58 4.8 98.61   -14 Snow
06:30 -4.9 -7.5 82   25 52 24.1 98.59   -15 LegendNANA
07:30 -5.0 -11.6 60   25 56 24.1 98.53   -15 LegendNANA
08:30 -5.5 -9.8 72   25 63 24.1 98.52   -17 Snow Showers,Blowing Snow
09:30 -5.8 -9.0 78   25 56 1.6 98.51   -17 Snow Showers,Blowing Snow
10:30 -5.9 -10.1 73   26 63 1.6 98.51   -17 Snow Showers,Blowing Snow
11:30 -6.1 -11.2 68   25 59 24.1 98.40   -17 Blowing Snow
12:30 -6.1 -11.6 66   26 67 24.1 98.28   -18 Blowing Snow
13:30 -5.7 -13.6 54   25 72 24.1 98.17   -17 LegendNANA
14:30 -6.2 -13.7 56   26 64 24.1 98.14   -18 Mainly Clear
15:30 -6.3 -14.2 54   26 68 24.1 98.15   -18 LegendNANA
16:30 -6.7 -13.3 60   26 63 24.1 98.16   -18 LegendNANA
17:30 -6.5 -13.3 59   26 73 24.1 98.17   -19 Mainly Clear
18:30 -6.5 -12.7 62   26 67 24.1 98.11   -18 LegendNANA
19:30 -6.5 -13.2 60   26 77 24.1 98.10   -19 LegendNANA
20:30 -6.6 -12.2 65   26 75 24.1 98.07   -19 Snow Showers
21:30 -6.5 -12.1 65   27 59 24.1 98.05   -18 LegendNANA
22:30 -6.5 -13.2 59   26 75 24.1 97.99   -19 LegendNANA
23:30 -6.4 -13.3 59   26 69 24.1 97.97   -18 Mostly Cloudy

Notes on Data Quality.

Legend

  • E = Estimated
  • M = Missing
  • NA = Not Available*
  • [empty] = Indicates an unobserved value
Date modified: